STARLINK-2606, 48386

Orbit data source: Space-Track

STARLINK-2606, 48386 is a payload satellite owned by SpaceX/Seattle (US) in LEO that was launched on Tue, 04 May 2021 UTC via an FALCON 9 launch vehicle from the Air Force Eastern Test Range (AFETR). Payload-class satellites include a variety of spacecraft equipped with specific instruments for various scientific and technological missions. These include communications satellites like Starlink; space stations such as the ISS; scientific satellites like the Hubble; Earth observation satellites from companies like Planet Labs, Umbra, and HawkEye 360; GPS; miniature CubeSats for education and research; and military/defense satellites.

Loading next visibility...
Identifier
48386, 2021-038AK
Orbit
LEO
Country
Flag of USUS
Related business
Manufacturer
SpaceX/Seattle
Mission
Operational Commercial Communications
Bus & Motor
STARLINK, Unknown motor
Mass
260 kg wet, ~248 kg dry
Launch date (UTC)
2021-05-04 (5 years ago)
Launch vehicle
FALCON 9
Launch site
Air Force Eastern Test Range (AFETR)
Object type
Payload
Rocket body
Debris
Shape & HBR
Box + 1 Pan, 10.1 m
Radar Cross Section
13.562 m², Large (>1 m²)

Expand to show TLE details & history
Last TLE update: 2 days ago

TLE from 2 days ago
0 STARLINK-2606
1 48386U 21038AK  26171.45910304 -.00005898  00000-0 -17836-3 0  9996
2 48386  53.1567 227.4377 0001047  70.3673 289.7441 15.31714408282997
Epoch: 2026-06-20T11:01Z
TLE epoch observation values (Epoch: 2026-06-20T11:01:06.502Z)
Latitude
-0.00006°
Longitude
153.48714°
Altitude
471.355 km
Speed
7.632 km/s
True Right ascension
15h 09m 45s
True Declination
0° 00' 00"
Sunlit
Object was in full shadow at epoch
Visualization orbit readout
Latitude
Unknown
Longitude
Unknown
Altitude
Unknown
Speed
Unknown
Apparent Right ascension
Unknown
Apparent Declination
Unknown
Sunlit
N/A
Visualization observer readout
Local Sidereal Time
21:40:44
Azimuth
Unknown
Elevation
Unknown
Doppler factor
Unknown
Orbital elements
Apogee altitude
471.671 km
Perigee altitude
470.237 km
Semi-major axis
6,849.091 km
Eccentricity
0.0001
Inclination
53.1567°
RAAN
227.4377°
Arg. of periapsis
70.3673°
True anomaly
289.73281°
Mean anomaly
289.7441°
Eccentric anomaly
289.73845°
Mean motion
3.82907 °/min
Orbital period
94.02 mins
BSTAR
-0.00017836
Loading maneuver chart data...
Computing Atmospheric mass density...

Documentation

Showing up to 5 results
|